STARLINK-3653, 52000

Orbit data source: Space-Track

STARLINK-3653, 52000 is a payload satellite owned by SpaceX/Seattle (US) in LEO that was launched on Wed, 09 Mar 2022 UTC via an FALCON 9 launch vehicle from the Air Force Eastern Test Range (AFETR). Payload-class satellites include a variety of spacecraft equipped with specific instruments for various scientific and technological missions. These include communications satellites like Starlink; space stations such as the ISS; scientific satellites like the Hubble; Earth observation satellites from companies like Planet Labs, Umbra, and HawkEye 360; GPS; miniature CubeSats for education and research; and military/defense satellites.

Loading next visibility...
Identifier
52000, 2022-025AW
Orbit
LEO
Country
Flag of USUS
Related business
Manufacturer
SpaceX/Seattle
Mission
Operational Commercial Communications
Bus & Motor
STARLINK, Unknown motor
Mass
297 kg wet, ~275 kg dry
Launch date (UTC)
2022-03-09 (4 years ago)
Launch vehicle
FALCON 9
Launch site
Air Force Eastern Test Range (AFETR)
Object type
Payload
Rocket body
Debris
Shape & HBR
Box + 1 Pan, 10.1 m
Radar Cross Section
13.562 m², Large (>1 m²)

Expand to show TLE details & history
Last TLE update: 22 hours ago

TLE from 22 hours ago
0 STARLINK-3653
1 52000U 22025AW  25346.44520413 -.00002430  00000-0 -13455-3 0  9993
2 52000  53.2197  50.6914 0001695  71.0930 289.0246 15.08861113207758
Epoch: 2025-12-12T10:41Z
TLE epoch observation values (Epoch: 2025-12-12T10:41:05.636Z)
Latitude
-0.00003°
Longitude
169.03117°
Altitude
540.195 km
Speed
7.594 km/s
True Right ascension
03h 22m 45s
True Declination
0° 00' 00"
Sunlit
Object was in full shadow at epoch
Visualization orbit readout
Latitude
Unknown
Longitude
Unknown
Altitude
Unknown
Speed
Unknown
Apparent Right ascension
Unknown
Apparent Declination
Unknown
Sunlit
N/A
Visualization observer readout
Local Sidereal Time
07:28:04
Azimuth
Unknown
Elevation
Unknown
Doppler factor
Unknown
Orbital elements
Apogee altitude
541.096 km
Perigee altitude
538.751 km
Semi-major axis
6,918.06 km
Eccentricity
0.00017
Inclination
53.2197°
RAAN
50.6914°
Arg. of periapsis
71.093°
True anomaly
289.00624°
Mean anomaly
289.0246°
Eccentric anomaly
289.01542°
Mean motion
3.77196 °/min
Orbital period
95.44 mins
BSTAR
-0.00013455
Loading maneuver chart data...
Computing Atmospheric mass density...
Loading historical data...
Loading historical data...
Loading historical data...
Loading historical data...
Loading historical data...
Loading historical data...
Loading historical data...

Documentation

Showing up to 5 results
|